Location: Kalberh�ni
(46.4610°N, 7.2453°E)
Time: 04:43:45
(UTC+00:00)

Cosmos 1802 Rocket - Pass Details

Date: 28 October 2021
Orbit: 955 x 1010 km, 82.9° (Epoch: 05 December)

Event Time Altitude Azimuth Distance (km) Brightness Sun altitude
Rises 16:51:15 0° 123° (ESE) 3,625 6.6 -5.7°
Reaches altitude 10° 16:56:03 10° 89° (E) 2,689 5.7 -6.5°
Maximum altitude 16:57:31 11° 75° (ENE) 2,627 5.6 -6.7°
Drops below altitude 10° 16:58:59 10° 61° (ENE) 2,697 5.7 -7.0°
Sets 17:03:48 0° 28° (NNE) 3,660 6.6 -7.8°
